Truckee-Tahoe, CA

6:52 AM PDT on July 23, 2017 (GMT -0700)
Truckee-Tahoe

Weather History for KTRK - July, 2012

Change the Weather History Date:

Friday, July 20, 2012

  Actual Average Record
Temperature  
Mean Temperature 62 °F -  
Max Temperature 77 °F 82 °F 93 °F (1979)
Min Temperature 48 °F 41 °F 28 °F (1983)
Degree Days  
Heating Degree Days 2    
Growing Degree Days 12 (Base 50)    
Moisture  
Dew Point 41 °F    
Average Humidity 50    
Maximum Humidity 82    
Minimum Humidity 24    
Precipitation  
Precipitation 0.00 in - - ()
Sea Level Pressure  
Sea Level Pressure 30.28 in    
Wind  
Wind Speed 7 mph (SW)    
Max Wind Speed 18 mph    
Max Gust Speed 24 mph    
Visibility 10 miles    
Events      
Averages and records for this station are not official NWS values.
T = Trace of Precipitation, MM = Missing Value Source: NWS Daily Summary

Daily Weather History Graph

Daily Weather History Graph

Search for Another Location

Airport or City:

Trip Planner

Search our weather history database for the weather conditions in past years. The results will help you decide how hot, cold, wet, or windy it might be!

Date:

Astronomy

Jul. 20, 2012 Rise Set
Actual Time 5:50 AM PDT 8:22 PM PDT
Civil Twilight 5:19 AM PDT 8:53 PM PDT
Nautical Twilight 4:41 AM PDT 9:31 PM PDT
Astronomical Twilight 3:58 AM PDT 10:14 PM PDT
Moon 7:32 AM PDT (7/20) 9:06 PM PDT (7/20)
Length of Visible Light 15h 33m
Length of Day
14h 32m
Waxing Crescent, 3% of the Moon is Illuminated
Jul 20
Waxing Crescent
Jul 26
First Quarter
Aug 1
Full
Aug 9
Last Quarter
Aug 17
New

Hourly Weather History & Observations

Time (PDT) Temp. Dew Point Humidity Pressure Visibility Wind Dir Wind Speed Gust Speed Precip Events Conditions
12:15 AM 59.0 °F 44.6 °F 59% 30.25 in 10.0 mi WSW 9.2 mph 17.3 mph N/A   Clear
12:35 AM 59.0 °F 44.6 °F 59% 30.25 in 10.0 mi SSW 13.8 mph 21.9 mph N/A   Clear
12:55 AM 59.0 °F 44.6 °F 59% 30.25 in 10.0 mi WSW 8.1 mph - N/A   Clear
1:15 AM 57.2 °F 44.6 °F 63% 30.25 in 10.0 mi WSW 8.1 mph - N/A   Clear
1:35 AM 55.4 °F 44.6 °F 67% 30.25 in 10.0 mi SW 8.1 mph - N/A   Clear
1:55 AM 57.2 °F 44.6 °F 63% 30.25 in 10.0 mi Calm Calm - N/A   Clear
2:15 AM 57.2 °F 44.6 °F 63% 30.25 in 10.0 mi SSW 4.6 mph - N/A   Clear
2:35 AM 55.4 °F 44.6 °F 67% 30.25 in 10.0 mi SSW 5.8 mph - N/A   Clear
2:55 AM 55.4 °F 44.6 °F 67% 30.24 in 10.0 mi West 3.5 mph - N/A   Clear
3:15 AM 57.2 °F 44.6 °F 63% 30.24 in 10.0 mi West 5.8 mph - N/A   Clear
3:35 AM 55.4 °F 44.6 °F 67% 30.24 in 10.0 mi Calm Calm - N/A   Clear
3:55 AM 53.6 °F 44.6 °F 72% 30.25 in 10.0 mi SW 4.6 mph - N/A   Clear
4:15 AM 50.0 °F 42.8 °F 76% 30.25 in 10.0 mi SW 4.6 mph - N/A   Clear
4:35 AM 48.2 °F 42.8 °F 82% 30.25 in 10.0 mi SSW 4.6 mph - N/A   Clear
4:55 AM 50.0 °F 42.8 °F 76% 30.25 in 10.0 mi West 6.9 mph - N/A   Clear
5:15 AM 55.4 °F 44.6 °F 67% 30.26 in 10.0 mi WSW 5.8 mph - N/A   Clear
5:35 AM 51.8 °F 42.8 °F 71% 30.27 in 10.0 mi SSW 5.8 mph - N/A   Clear
5:55 AM 55.4 °F 42.8 °F 63% 30.27 in 10.0 mi SSW 4.6 mph - N/A   Clear
6:15 AM 57.2 °F 44.6 °F 63% 30.28 in 10.0 mi SSW 5.8 mph - N/A   Clear
6:35 AM 55.4 °F 44.6 °F 67% 30.28 in 10.0 mi SSE 5.8 mph - N/A   Clear
6:45 AM 57.2 °F 44.6 °F 63% 30.28 in 10.0 mi SE 3.5 mph - N/A   Partly Cloudy
7:50 AM 64.4 °F 44.6 °F 49% 30.29 in 10.0 mi South 11.5 mph - N/A   Partly Cloudy
9:50 AM 68.0 °F 44.6 °F 43% 30.30 in 10.0 mi SSW 11.5 mph 21.9 mph N/A   Scattered Clouds
10:45 AM 71.6 °F 44.6 °F 38% 30.30 in 10.0 mi SSW 12.7 mph 23.0 mph N/A   Scattered Clouds
11:45 AM 73.4 °F 44.6 °F 36% 30.31 in 10.0 mi WSW 9.2 mph 19.6 mph N/A   Scattered Clouds
12:45 PM 75.2 °F 44.6 °F 34% 30.30 in 10.0 mi WSW 18.4 mph 24.2 mph N/A   Scattered Clouds
1:45 PM 77.0 °F 39.2 °F 26% 30.30 in 10.0 mi SW 15.0 mph 24.2 mph N/A   Scattered Clouds
2:45 PM 77.0 °F 37.4 °F 24% 30.29 in 10.0 mi SW 13.8 mph 18.4 mph N/A   Partly Cloudy
3:45 PM 77.0 °F 39.2 °F 26% 30.28 in 10.0 mi WSW 13.8 mph 23.0 mph N/A   Partly Cloudy
4:45 PM 77.0 °F 41.0 °F 28% 30.28 in 10.0 mi WSW 15.0 mph 23.0 mph N/A   Partly Cloudy
5:55 PM 77.0 °F 41.0 °F 28% 30.27 in 10.0 mi West 9.2 mph 19.6 mph N/A   Clear
6:15 PM 75.2 °F 39.2 °F 27% 30.27 in 10.0 mi West 15.0 mph 19.6 mph N/A   Clear
6:35 PM 75.2 °F 39.2 °F 27% 30.27 in 10.0 mi West 11.5 mph - N/A   Clear
6:55 PM 73.4 °F 39.2 °F 29% 30.28 in 10.0 mi SW 10.4 mph - N/A   Clear
7:15 PM 73.4 °F 37.4 °F 27% 30.28 in 10.0 mi West 11.5 mph 17.3 mph N/A   Clear
7:35 PM 71.6 °F 37.4 °F 29% 30.28 in 10.0 mi West 11.5 mph - N/A   Clear
7:55 PM 71.6 °F 37.4 °F 29% 30.28 in 10.0 mi West 8.1 mph - N/A   Clear
8:15 PM 68.0 °F 37.4 °F 33% 30.29 in 10.0 mi West 6.9 mph - N/A   Clear
8:35 PM 66.2 °F 37.4 °F 35% 30.29 in 10.0 mi WSW 3.5 mph - N/A   Clear
8:55 PM 64.4 °F 37.4 °F 37% 30.30 in 10.0 mi Calm Calm - N/A   Clear
9:15 PM 64.4 °F 37.4 °F 37% 30.30 in 10.0 mi Calm Calm - N/A   Clear
9:35 PM 59.0 °F 37.4 °F 45% 30.30 in 10.0 mi Calm Calm - N/A   Clear
9:55 PM 59.0 °F 37.4 °F 45% 30.31 in 10.0 mi Calm Calm - N/A   Clear
10:15 PM 57.2 °F 37.4 °F 48% 30.31 in 10.0 mi Calm Calm - N/A   Clear
10:35 PM 57.2 °F 37.4 °F 48% 30.32 in 10.0 mi South 3.5 mph - N/A   Clear
10:55 PM 53.6 °F 39.2 °F 58% 30.31 in 10.0 mi Calm Calm - N/A   Clear
11:15 PM 55.4 °F 39.2 °F 54% 30.32 in 10.0 mi SSE 4.6 mph - N/A   Clear
11:35 PM 50.0 °F 37.4 °F 62% 30.32 in 10.0 mi SW 3.5 mph - N/A   Clear
11:55 PM 50.0 °F 37.4 °F 62% 30.31 in 10.0 mi Calm Calm - N/A   Clear